User: anonymous   Login
Location: Bermeries
(50.2863°N, 3.7551°E)
Time: 12:00:26
(UTC+00:00)
Language:

Cosmos 381 Rocket - Orbit

View from above orbital plane
View from above orbital plane
View from above satellite
View from above satellite

Ground track
Ground track

The orbit data is extracted from the following two-line orbital elements,

1  4784U 70102B   24200.91366024  .00000070  00000-0  93415-4 0  9995
2  4784  74.0313 356.3123 0026075 164.3281 311.5362 13.76875177693563
Epoch (UTC): 18 July 2024 21:55:40
Eccentricity: 0.0026075
inclination: 74.0313°
perigee height: 956 km
apogee height: 994 km
right ascension of ascending node: 356.3123°
argument of perigee: 164.3281°
revolutions per day: 13.76875177
mean anomaly at epoch: 311.5362°
orbit number at epoch: 69356

The dashed part of the orbit path shows where the satellite is in the earth's shadow,  

DLR